This is the latest recevied weather packets stored in our database for station/object DL9DCA-13. If no packets are shown the sender has not sent any weather packets the latest 10 day(s).
| Time | Temp. | Humidity | Pressure | Rain* | Wind** | Luminosity | Snow |
|---|---|---|---|---|---|---|---|
| 1777643411 | 19.44° C | 51% | 1021.7 hPa | - | - | - | - |
| 1777642812 | 19.44° C | 53% | 1021.7 hPa | - | - | - | - |
| 1777642212 | 19.44° C | 52% | 1020.8 hPa | - | - | - | - |
| 1777641611 | 19.44° C | 51% | 1021.4 hPa | - | - | - | - |
| 1777641011 | 19.44° C | 51% | 1021.4 hPa | - | - | - | - |
| 1777639812 | 19.44° C | 51% | 1022.4 hPa | - | - | - | - |
| 1777638012 | 19.44° C | 50% | 1022.4 hPa | - | - | - | - |
| 1777635612 | 18.89° C | 50% | 1023.3 hPa | - | - | - | - |
| 1777635012 | 18.89° C | 50% | 1023.3 hPa | - | - | - | - |
| 1777634411 | 18.89° C | 49% | 1023.3 hPa | - | - | - | - |
| 1777633812 | 18.89° C | 48% | 1023.9 hPa | - | - | - | - |
| 1777633212 | 18.89° C | 48% | 1023 hPa | - | - | - | - |
| 1777632011 | 18.89° C | 44% | 1023.9 hPa | - | - | - | - |
| 1777631411 | 18.89° C | 45% | 1023.9 hPa | - | - | - | - |
| 1777630812 | 18.89° C | 45% | 1023.9 hPa | - | - | - | - |
| 1777630211 | 18.89° C | 45% | 1023.9 hPa | - | - | - | - |
| 1777629612 | 18.89° C | 46% | 1024.9 hPa | - | - | - | - |
| 1777629011 | 18.89° C | 47% | 1024.9 hPa | - | - | - | - |
| 1777628411 | 18.89° C | 46% | 1024.9 hPa | - | - | - | - |
| 1777627811 | 18.89° C | 46% | 1024.9 hPa | - | - | - | - |
| 1777627212 | 18.89° C | 44% | 1024.9 hPa | - | - | - | - |
| 1777626611 | 18.89° C | 41% | 1024.9 hPa | - | - | - | - |
| 1777626012 | 18.89° C | 43% | 1024.9 hPa | - | - | - | - |
| 1777625411 | 18.89° C | 44% | 1024.9 hPa | - | - | - | - |
| 1777624812 | 18.89° C | 43% | 1024.9 hPa | - | - | - | - |
* Rain since midnight (hover to see other rain measurements)
** Current wind speed in m/s (hover to see current wind gust speed)